Terminal Aerodrome Forecast
Issued by NWS

Current Version | Previous Version | Text Only | Print | Product List | Glossary Off
Versions: 1 2 3 4 5 6 7 8 9 10 11 12 13 14 15 16 17 18 19

000
FTUS41 KILN 240500
TAFLUK
TAF
KLUK 240530Z 2406/2506 00000KT P6SM SCT250
     FM241500 22005KT P6SM BKN250
     FM241900 22012G20KT P6SM SCT030
     FM250000 24008KT P6SM OVC030=

USA.gov is the U.S. government's official web portal to all federal, state and local government web resources and services.